EW1701 Weather Reports


time (UTC)temp
F
wind
direction
speed
knots
gust
knots
rain 1hr
in
rain 24hr
in
rain mn
in
humidity
%
barometer
mb
20260508110046 64 156 2.6 12.2 0.00 0.00 0.00 42 1017.1
20260508104545 63 169 3.5 10.4 0.00 0.00 0.00 43 1017.2
20260508103052 61 257 3.5 9.6 0.00 0.00 0.00 44 1017.4
20260508101548 61 192 3.5 9.6 0.00 0.00 0.00 44 1017.3
20260508100059 60 221 1.7 7.0 0.00 0.00 0.00 46 1017.4
20260508094549 60 204 1.7 7.0 0.00 0.00 0.00 48 1017.3
20260508093043 59 186 3.5 7.8 0.00 0.00 0.00 48 1017.3
20260508091547 58 177 1.7 7.8 0.00 0.00 0.00 48 1017.3
20260508090109 58 171 3.5 7.8 0.00 0.00 0.00 48 1017.3
20260508084548 57 187 0.9 6.1 0.00 0.00 0.00 49 1017.2
20260508083044 57 188 3.5 7.8 0.00 0.00 0.00 51 1017.2
20260508081600 55 198 4.3 7.8 0.00 0.00 0.00 52 1017.2
20260508080048 54 175 2.6 7.0 0.00 0.00 0.00 55 1017.2
20260508074550 53 0 1.7 7.0 0.00 0.00 0.00 56 1017.1
20260508073102 52 244 3.5 7.8 0.00 0.00 0.00 58 1016.9
20260508071551 51 207 3.5 7.8 0.00 0.00 0.00 59 1016.9
20260508070051 51 200 4.3 10.4 0.00 0.00 0.00 60 1016.8
20260508064554 50 183 1.7 7.0 0.00 0.00 0.00 62 1016.7
20260508063045 49 180 1.7 7.8 0.00 0.00 0.00 64 1016.5
20260508061547 48 219 1.7 5.2 0.00 0.00 0.00 65 1016.4
20260508054549 47 209 1.7 4.3 0.00 0.00 0.00 67 1016.3
20260508053048 46 187 1.7 6.1 0.00 0.00 0.00 67 1016.1
20260508051605 46 242 1.7 6.1 0.00 0.00 0.00 66 1016.0
20260508050044 46 0 1.7 4.3 0.00 0.00 0.00 67 1015.8
20260508044548 46 216 0.9 2.6 0.00 0.00 0.00 66 1015.9
20260508043050 46 0 0.0 2.6 0.00 0.00 0.00 66 1015.8
20260508041548 47 0 0.0 3.5 0.00 0.00 0.00 66 1015.9
20260508040055 46 199 0.9 3.5 0.00 0.00 0.00 66 1015.7
20260508034550 46 0 0.0 3.5 0.00 0.00 0.00 66 1015.6
20260508033054 46 207 0.0 2.6 0.00 0.00 0.00 67 1015.6
20260508031555 46 0 0.9 4.3 0.00 0.00 0.00 67 1015.5
20260508030058 46 182 0.0 2.6 0.00 0.00 0.00 66 1015.5
20260508024613 46 182 0.0 3.5 0.00 0.00 0.00 65 1015.5
20260508023045 46 186 0.9 4.3 0.00 0.00 0.00 65 1015.5
20260508021549 47 178 0.0 4.3 0.00 0.00 0.00 64 1015.5
20260508020052 47 201 0.0 5.2 0.00 0.00 0.00 64 1015.6
20260508014550 48 0 0.0 5.2 0.00 0.00 0.00 64 1015.5
20260508013051 48 181 0.9 7.0 0.00 0.00 0.00 63 1015.6
20260508011549 48 159 2.6 7.0 0.00 0.00 0.00 63 1015.5
20260508010052 49 0 1.7 7.0 0.00 0.00 0.00 63 1015.6
20260508004552 49 151 0.9 5.2 0.00 0.00 0.00 63 1015.5
20260508003052 49 167 0.9 5.2 0.00 0.00 0.00 62 1015.7
20260508001547 49 173 2.6 7.8 0.00 0.00 0.00 62 1015.7
20260508000053 49 188 2.6 9.6 0.00 0.00 0.00 61 1015.8
20260507234556 50 174 2.6 10.4 0.00 0.00 0.00 61 1015.6
20260507233058 50 151 4.3 10.4 0.00 0.00 0.00 60 1015.6
20260507231552 50 193 2.6 12.2 0.00 0.00 0.00 59 1015.6
20260507224554 51 220 3.5 10.4 0.00 0.00 0.00 57 1015.5
20260507223051 51 168 2.6 8.7 0.00 0.00 0.00 57 1015.6
20260507221554 51 205 1.7 5.2 0.00 0.00 0.00 57 1015.4
20260507220052 51 155 1.7 6.1 0.00 0.00 0.00 58 1015.5
20260507214550 51 142 0.9 6.1 0.00 0.00 0.00 58 1015.6
20260507213044 51 222 0.9 4.3 0.00 0.00 0.00 58 1015.5
20260507211556 51 0 0.0 4.3 0.00 0.00 0.00 57 1015.5
20260507210105 51 0 0.0 3.5 0.00 0.00 0.00 56 1015.3
20260507204548 51 139 0.9 6.1 0.00 0.00 0.00 56 1015.3
20260507203115 51 171 0.9 4.3 0.00 0.00 0.00 55 1015.1
20260507201553 52 167 0.0 2.6 0.00 0.00 0.00 54 1015.2
20260507200054 52 0 0.0 3.5 0.00 0.00 0.00 54 1015.1
20260507194601 52 0 0.9 3.5 0.00 0.00 0.00 54 1014.9
20260507193049 52 138 0.0 4.3 0.00 0.00 0.00 54 1014.9
20260507191551 53 126 0.0 3.5 0.00 0.00 0.00 54 1014.6
20260507190057 53 0 0.0 3.5 0.00 0.00 0.00 54 1014.6
20260507184552 53 0 0.0 5.2 0.00 0.00 0.00 53 1014.6
20260507183050 54 0 0.9 3.5 0.00 0.00 0.00 53 1014.6
20260507181551 54 0 0.0 4.3 0.00 0.00 0.00 53 1014.6
20260507180055 54 0 1.7 7.8 0.00 0.00 0.00 52 1014.6
20260507174556 54 161 0.9 5.2 0.00 0.00 0.00 53 1014.6
20260507173125 54 0 1.7 6.1 0.00 0.00 0.00 53 1014.7
20260507171557 54 140 0.9 7.0 0.00 0.00 0.00 53 1014.7
20260507170053 54 194 0.9 7.8 0.00 0.00 0.00 53 1014.9
20260507164555 54 169 1.7 6.1 0.00 0.00 0.00 53 1015.0
20260507163055 54 192 2.6 10.4 0.00 0.00 0.00 53 1015.0
20260507161559 54 180 2.6 7.8 0.00 0.00 0.00 52 1015.0
20260507160100 53 159 3.5 12.2 0.00 0.00 0.00 53 1015.0
20260507154545 52 200 3.5 8.7 0.00 0.00 0.00 53 1015.1
20260507153057 52 192 2.6 8.7 0.00 0.00 0.00 54 1015.1
20260507151548 52 201 4.3 8.7 0.00 0.00 0.00 54 1015.2
20260507150048 52 196 5.2 9.6 0.00 0.00 0.00 54 1015.3
20260507144548 52 189 5.2 12.2 0.00 0.00 0.00 53 1015.3
20260507143057 53 193 5.2 10.4 0.00 0.00 0.00 53 1015.4
20260507141558 53 186 4.3 11.3 0.00 0.00 0.00 52 1015.4
20260507140053 54 184 5.2 13.0 0.00 0.00 0.00 51 1015.5
20260507134554 54 200 4.3 15.6 0.00 0.00 0.00 53 1015.5
20260507133125 54 178 4.3 15.6 0.00 0.00 0.00 54 1015.7
20260507131548 53 204 6.1 13.0 0.00 0.00 0.00 54 1015.6
20260507130058 54 194 3.5 14.8 0.00 0.00 0.00 53 1015.6
20260507124609 54 184 4.3 13.0 0.00 0.00 0.00 52 1015.6
20260507123048 54 192 4.3 12.2 0.00 0.00 0.00 51 1015.5
20260507121550 55 168 5.2 13.9 0.00 0.00 0.00 51 1015.6
20260507120048 54 191 5.2 13.9 0.00 0.00 0.00 50 1015.7
20260507114558 55 190 4.3 13.0 0.00 0.00 0.00 50 1015.8
20260507113044 54 244 5.2 13.9 0.00 0.00 0.00 51 1015.9
20260507111544 53 208 3.5 10.4 0.00 0.00 0.00 52 1015.9